TimeCST,TemperatureF,Dew PointF,Humidity,Sea Level PressureIn,VisibilityMPH,Wind Direction,Wind SpeedMPH,Gust SpeedMPH,PrecipitationIn,Events,Conditions,WindDirDegrees,DateUTC
12:52 AM,12.9,10.0,88,30.40,10.0,Calm,Calm,-,N/A,,Clear,0,2013-02-15 06:52:00
1:52 AM,14.0,10.0,84,30.40,10.0,West,6.9,-,N/A,,Partly Cloudy,280,2013-02-15 07:52:00
2:42 AM,15.8,12.2,86,30.27,10.0,West,3.5,-,N/A,,Mostly Cloudy,260,2013-02-15 08:42:00
2:49 AM,14.0,10.4,86,30.28,10.0,West,3.5,-,N/A,,Scattered Clouds,270,2013-02-15 08:49:00
2:52 AM,14.0,10.4,86,30.28,10.0,West,3.5,-,N/A,,Mostly Cloudy,270,2013-02-15 08:52:00
3:52 AM,12.9,10.0,88,30.38,10.0,SW,6.9,-,N/A,,Clear,220,2013-02-15 09:52:00
4:52 AM,14.0,9.0,80,30.38,10.0,West,6.9,-,N/A,,Clear,280,2013-02-15 10:52:00
5:52 AM,14.0,9.0,80,30.39,10.0,West,3.5,-,N/A,,Mostly Cloudy,260,2013-02-15 11:52:00
6:52 AM,18.0,12.9,81,30.37,10.0,WSW,6.9,-,N/A,,Mostly Cloudy,240,2013-02-15 12:52:00
7:52 AM,14.0,10.0,84,30.39,10.0,West,4.6,-,N/A,,Partly Cloudy,270,2013-02-15 13:52:00
8:52 AM,19.0,12.0,74,30.40,10.0,WNW,6.9,-,N/A,,Clear,300,2013-02-15 14:52:00
9:38 AM,21.2,14.0,74,30.30,10.0,NNW,21.9,27.6,N/A,,Mostly Cloudy,330,2013-02-15 15:38:00
9:52 AM,23.0,15.1,72,30.41,10.0,NW,17.3,25.3,N/A,,Mostly Cloudy,320,2013-02-15 15:52:00
10:01 AM,23.0,15.8,74,30.29,10.0,NNW,17.3,26.5,N/A,,Scattered Clouds,330,2013-02-15 16:01:00
10:52 AM,24.1,14.0,65,30.43,10.0,NNW,18.4,25.3,N/A,,Scattered Clouds,330,2013-02-15 16:52:00
11:52 AM,27.0,12.9,56,30.44,10.0,NNW,17.3,-,N/A,,Mostly Cloudy,340,2013-02-15 17:52:00
12:16 PM,26.6,12.2,55,30.31,10.0,NNW,17.3,28.8,N/A,,Mostly Cloudy,330,2013-02-15 18:16:00
12:52 PM,27.0,10.0,49,30.43,10.0,North,17.3,24.2,N/A,,Overcast,360,2013-02-15 18:52:00
1:52 PM,27.0,10.9,51,30.43,10.0,NNW,18.4,24.2,N/A,,Overcast,330,2013-02-15 19:52:00
2:52 PM,27.0,12.9,56,30.42,8.0,NNW,16.1,24.2,0.00,Snow,Light Snow,340,2013-02-15 20:52:00
3:52 PM,27.0,12.0,53,30.43,10.0,NW,13.8,20.7,0.00,,Mostly Cloudy,320,2013-02-15 21:52:00
4:52 PM,28.0,10.0,47,30.42,10.0,North,13.8,23.0,N/A,,Partly Cloudy,350,2013-02-15 22:52:00
5:52 PM,26.1,9.0,49,30.42,10.0,North,8.1,-,N/A,,Clear,350,2013-02-15 23:52:00
6:52 PM,23.0,10.0,58,30.42,10.0,NNE,3.5,-,N/A,,Clear,20,2013-02-16 00:52:00
7:52 PM,15.1,10.0,80,30.43,10.0,SSW,5.8,-,N/A,,Clear,200,2013-02-16 01:52:00
8:52 PM,15.1,9.0,77,30.41,10.0,Calm,Calm,-,N/A,,Clear,0,2013-02-16 02:52:00
9:52 PM,12.9,8.1,81,30.38,10.0,South,3.5,-,N/A,,Clear,190,2013-02-16 03:52:00
10:52 PM,12.9,8.1,81,30.36,10.0,SW,5.8,-,N/A,,Clear,220,2013-02-16 04:52:00
11:52 PM,15.1,9.0,77,30.33,10.0,SSW,8.1,-,N/A,,Partly Cloudy,210,2013-02-16 05:52:00